Wetbulb
51.30 50.64 50.06 48.85 48.23 48.00 47.91 47.51 46.70 46.61 46.70 46.56 46.16 46.07 46.16 46.15 46.11 46.20 46.47 46.83 46.83 46.56 46.29 45.97 45.07 44.04 43.38 43.26 42.60 41.81 40.89 39.98 39.30 38.50 37.81 37.51 37.51 37.71 37.78 37.94 38.23 38.28 37.95 37.72 37.39 37.32 37.36 37.18 36.81 36.33 35.94 36.00 36.20 36.50 36.76 36.96 37.77 38.24 38.23 37.80 37.76 38.21 38.65 38.58 38.62 38.84 38.88 38.47 38.47
51.41 50.62 49.52 47.69 47.19 47.46 47.82 47.33 46.79 46.52 46.43 46.38 45.84 45.48 45.21 44.85 44.35 44.08 43.90 43.90 43.81 43.63 43.36 42.99 42.55 42.33 42.02 41.67 41.32 40.70 39.87 39.03 38.51 38.06 37.61 37.49 37.59 37.86 38.07 38.14 38.21 38.20 38.16 38.05 37.66 37.63 37.63 37.50 36.72 36.01 35.59 35.89 36.29 36.66 36.99 37.13 37.56 37.43 37.07 36.92 37.21 37.62 37.89 37.66 37.77 37.96 38.04 37.85 38.04
52.01 51.36 50.66 49.73 49.03 48.36 47.78 47.33 47.15 46.70 46.34 46.02 45.66 45.21 44.85 44.49 44.04 43.81 43.54 43.45 43.23 42.96 42.60 42.19 41.74 41.42 41.12 40.77 40.59 40.05 39.56 38.95 38.47 38.02 37.92 37.92 38.23 38.59 39.03 39.24 39.44 39.36 39.11 39.18 38.66 38.45 38.23 37.95 36.95 36.10 35.70 35.80 36.02 35.95 35.96 36.47 36.81 36.62 36.31 36.39 36.72 36.83 36.78 36.32 36.85 37.20 37.47 37.47 37.96
51.97 51.62 51.18 50.91 49.99 48.93 48.09 47.46 47.06 46.83 46.57 46.21 45.62 45.26 44.81 44.49 44.22 43.95 43.68 43.27 43.14 42.78 42.33 42.01 41.74 41.42 41.07 40.80 40.67 40.31 39.86 39.32 39.16 38.89 38.79 38.79 39.12 39.54 39.95 40.22 40.44 40.53 40.53 40.39 40.07 39.62 39.10 38.61 37.77 37.09 36.52 36.30 36.16 36.10 35.99 36.07 36.37 36.25 36.08 36.41 36.48 36.44 36.16 35.95 36.58 37.08 37.35 37.50 37.85
52.03 51.62 51.27 50.95 50.72 50.06 49.32 48.74 47.68 46.97 46.48 46.21 45.76 45.26 44.99 44.81 44.45 44.27 43.91 43.28 42.96 42.69 42.42 42.24 42.06 41.83 41.56 41.24 40.98 40.67 40.53 40.26 39.80 39.89 40.08 39.99 40.31 40.59 40.95 41.09 41.13 41.22 41.21 40.94 40.50 40.05 39.66 39.32 38.65 38.07 37.63 37.44 37.00 36.74 36.63 36.94 36.73 36.61 36.39 36.16 36.12 36.01 35.88 35.74 36.34 37.00 37.43 37.43 37.58
52.13 51.94 51.49 50.87 50.73 50.59 50.27 49.83 48.96 47.95 47.01 46.03 45.35 44.81 44.54 44.54 44.54 44.32 43.92 43.47 43.07 42.80 42.53 42.11 41.88 41.74 41.65 41.79 41.43 41.24 41.15 41.25 41.15 41.15 41.07 41.06 41.20 41.33 41.52 41.57 41.61 41.42 41.11 40.83 40.56 40.25 39.99 39.59 39.02 38.48 38.21 37.86 37.26 36.96 36.97 37.19 37.01 36.99 36.87 36.60 35.94 35.74 35.77 35.61 36.13 36.65 36.93 36.89 36.74
51.57 51.47 51.21 50.75 50.27 50.13 50.21 49.88 49.31 48.51 47.72 46.39 45.14 44.37 44.05 44.18 44.32 44.14 43.75 43.44 43.12 42.76 42.44 41.84 42.02 41.97 41.97 42.06 41.88 41.97 41.97 42.15 42.33 42.24 42.15 42.00 42.00 42.00 42.00 42.01 42.01 41.82 41.37 41.01 40.65 40.29 40.07 39.68 38.94 38.25 37.71 37.31 37.04 36.81 36.86 37.09 36.95 36.55 36.30 36.56 35.89 35.58 35.48 35.57 35.90 36.14 36.19 36.20 35.98
50.87 50.69 50.55 50.79 50.36 50.01 49.74 49.56 48.73 47.94 47.28 46.70 45.41 44.56 43.98 44.06 43.93 43.76 43.40 43.23 42.95 42.63 42.49 42.35 42.62 42.71 42.57 42.56 42.60 42.69 42.78 42.96 43.09 43.09 43.09 43.18 42.99 42.99 42.90 42.82 42.46 42.10 41.69 41.16 40.79 40.25 39.80 39.44 38.67 38.03 37.41 37.14 36.60 36.36 36.43 36.69 36.44 35.97 35.42 34.86 34.86 35.11 35.31 35.74 35.89 35.80 35.77 35.62 35.26
50.89 50.79 50.62 50.56 50.30 49.98 49.58 49.10 48.35 47.58 46.79 46.43 45.68 44.93 44.22 44.12 43.72 43.50 43.24 42.97 42.88 42.83 42.95 43.08 43.17 43.30 43.21 43.20 43.28 43.37 43.59 43.68 43.77 43.81 43.99 43.86 43.73 43.55 43.37 43.19 42.65 42.20 41.75 41.31 40.77 40.05 39.60 38.99 38.40 37.82 37.47 37.25 36.51 35.95 35.71 35.88 35.36 34.83 34.27 33.98 34.16 34.39 34.80 35.18 35.29 35.35 35.25 35.04 34.79
49.90 50.86 50.88 50.39 50.29 50.04 49.65 49.21 48.38 47.57 46.83 46.13 45.55 45.06 44.35 43.03 43.29 43.52 43.52 43.30 43.29 43.29 43.29 43.29 43.47 43.54 43.57 43.60 43.73 43.91 44.09 44.18 44.18 44.18 44.14 44.01 43.79 43.53 43.39 43.06 42.58 42.08 41.58 41.18 40.73 40.20 39.57 38.89 38.19 37.69 37.34 36.93 35.95 35.17 34.76 34.80 34.55 34.06 33.65 33.59 33.51 33.57 33.79 34.14 34.65 34.92 34.84 34.48 34.10
48.21 50.10 51.09 50.51 50.12 49.64 49.15 48.94 48.28 47.55 46.73 45.99 45.42 45.37 44.83 43.55 43.74 43.93 43.85 43.64 43.61 43.52 43.43 43.65 43.77 43.84 43.88 43.92 44.00 44.18 44.18 44.27 44.24 44.11 43.94 43.76 43.49 43.36 43.15 42.83 42.35 41.64 41.10 40.70 40.46 40.02 39.45 38.71 37.37 36.56 35.85 35.22 34.55 34.02 33.96 34.28 34.10 33.76 33.40 33.20 33.01 32.91 33.01 33.44 33.96 34.35 34.35 34.12 33.59
46.75 49.03 50.86 51.02 50.49 49.62 48.90 48.47 47.99 47.38 46.69 46.04 45.64 45.56 45.51 45.15 44.94 44.51 44.17 43.95 43.66 43.60 43.61 43.84 44.05 44.07 44.06 43.97 44.14 44.14 44.23 44.46 44.38 44.08 43.77 43.54 43.37 43.12 42.90 42.37 41.80 41.06 40.45 39.97 39.86 39.68 39.07 37.61 36.15 35.07 34.35 33.90 33.77 33.66 33.86 34.20 33.92 33.39 32.86 32.71 32.62 32.48 32.46 32.69 33.32 33.71 33.85 33.67 32.89
45.76 47.88 49.96 51.05 50.46 49.86 49.02 48.21 48.04 47.51 46.82 46.08 45.73 45.68 45.64 45.64 45.21 44.73 44.42 44.20 43.78 43.60 43.61 43.76 43.84 44.05 43.96 44.04 44.12 44.26 44.26 44.13 44.18 44.04 43.72 43.41 43.29 42.99 42.59 42.15 41.50 40.68 39.86 39.28 39.27 38.93 38.21 36.57 35.26 34.23 33.56 33.17 33.56 33.82 34.03 34.14 33.59 33.00 32.40 32.18 32.19 32.14 32.10 32.16 32.58 32.96 33.20 33.03 32.27
45.21 46.93 49.06 50.71 50.37 49.68 48.93 48.25 48.17 47.74 47.21 46.38 45.90 45.73 45.77 45.68 45.08 44.69 44.46 44.23 43.79 43.62 43.66 43.70 43.74 44.01 44.18 44.10 44.31 44.27 44.18 44.18 44.05 43.87 43.47 43.20 43.25 43.04 42.51 41.94 41.14 40.26 39.28 38.37 38.17 37.66 36.86 35.59 34.74 34.01 33.49 33.22 33.55 33.88 34.09 34.07 33.48 32.89 32.43 32.11 31.97 31.78 31.66 31.63 31.99 32.39 32.51 32.20 31.66
44.96 46.37 48.42 50.43 50.02 49.39 48.90 48.38 48.27 48.06 47.71 46.95 46.34 46.07 45.81 45.55 44.86 44.56 44.42 44.42 43.94 43.80 43.84 43.74 43.82 44.00 44.27 44.46 44.50 44.36 44.27 44.10 43.92 43.70 43.25 43.16 43.13 42.79 42.06 41.18 40.13 39.02 37.94 37.09 36.61 36.16 35.65 34.87 34.36 33.91 33.62 33.36 33.44 33.66 33.84 33.84 33.36 32.99 32.57 32.26 31.82 31.49 31.26 31.28 31.58 31.90 31.92 31.62 31.11
44.77 45.93 47.88 49.84 49.56 49.19 48.82 48.53 48.42 48.34 48.03 47.35 46.99 46.51 46.03 45.43 45.08 44.78 44.43 44.38 44.07 43.94 43.76 43.67 44.01 44.35 44.53 44.40 44.40 44.45 44.27 44.10 43.88 43.66 43.30 43.17 42.94 42.28 41.16 39.84 38.59 37.53 36.57 35.78 35.52 35.28 35.14 34.87 34.49 34.09 33.79 33.53 33.51 33.51 33.56 33.65 33.31 33.06 32.61 32.38 31.83 31.52 31.20 31.19 31.55 31.72 31.83 31.74 31.13
44.48 45.38 47.02 49.18 49.20 48.95 48.61 48.50 48.52 48.44 48.12 47.67 47.21 46.64 45.99 45.68 45.25 44.78 44.30 44.08 44.16 43.90 43.81 43.86 44.28 44.62 44.74 44.37 44.30 44.30 44.09 44.00 43.83 43.62 43.36 43.08 42.51 41.53 40.17 38.58 37.48 36.63 35.87 35.26 34.97 34.83 34.92 34.96 34.85 34.63 34.37 33.97 33.79 33.70 33.70 33.72 33.37 33.08 32.77 32.44 31.99 31.64 31.41 31.47 31.85 31.93 31.88 31.72 31.02
44.36 44.76 46.01 48.54 49.08 48.90 48.52 48.36 48.46 48.34 48.07 47.58 47.13 46.78 46.34 45.86 45.43 44.86 44.47 44.38 44.43 44.13 43.91 44.00 44.47 44.80 44.83 44.60 44.24 43.98 43.85 43.82 43.70 43.50 43.22 42.69 41.83 40.51 39.14 37.70 36.84 36.29 35.72 35.22 34.97 34.86 34.74 34.75 34.88 34.85 34.69 34.48 34.19 34.11 33.97 33.88 33.48 33.12 32.82 32.49 32.09 31.79 31.64 31.69 32.09 32.21 32.07 31.69 31.09
44.20 44.41 45.26 47.28 48.84 49.03 48.54 48.04 48.22 48.06 47.75 47.27 46.92 46.56 46.30 45.82 45.43 45.12 44.91 44.77 44.64 44.47 44.22 44.18 44.60 44.77 44.75 44.30 43.99 43.49 43.28 43.61 43.38 43.10 42.61 41.84 40.55 39.06 37.85 36.81 36.30 35.94 35.58 35.19 35.15 34.97 34.77 34.70 34.79 34.87 34.70 34.32 34.14 34.06 33.99 33.82 33.42 32.97 32.63 32.28 31.96 31.69 31.65 31.83 32.15 32.29 32.20 31.78 31.16
44.08 44.12 44.78 46.28 48.11 48.83 48.67 48.24 48.07 47.82 47.48 47.09 46.78 46.52 46.08 45.73 45.51 45.12 45.04 44.91 44.95 44.82 44.65 44.52 44.64 44.72 44.54 43.87 43.34 42.95 42.74 43.03 42.76 42.24 41.56 40.44 38.87 37.55 36.51 35.90 35.61 35.37 35.15 35.01 34.87 34.78 34.66 34.48 34.61 34.57 34.36 34.06 33.90 33.76 33.59 33.26 32.94 32.49 32.17 31.94 31.61 31.47 31.55 31.76 31.99 32.12 32.00 31.67 31.22
43.94 44.20 44.61 45.57 47.41 48.46 48.77 48.54 48.41 47.99 47.48 47.00 46.83 46.48 46.13 45.82 45.51 45.30 45.12 45.17 45.47 45.21 44.90 44.73 44.81 44.54 44.05 43.35 42.79 42.36 42.12 42.07 41.85 41.15 40.12 38.76 37.55 36.52 35.79 35.22 34.80 34.60 34.53 34.49 34.50 34.38 34.29 34.25 34.37 34.35 34.15 33.77 33.53 33.32 33.12 32.85 32.31 31.93 31.62 31.49 31.19 31.16 31.30 31.41 31.44 31.50 31.45 31.34 31.05
43.91 44.22 44.41 44.97 46.66 48.18 49.03 48.80 48.61 48.08 47.52 46.96 46.74 46.48 46.21 45.95 45.64 45.47 45.56 45.69 45.73 45.46 45.02 44.97 45.02 44.45 43.79 42.91 42.22 41.81 41.46 41.01 40.66 39.85 38.69 37.59 36.77 36.08 35.47 34.94 34.52 34.14 33.90 33.74 33.80 33.87 33.98 34.28 34.32 34.23 34.00 33.65 33.32 33.07 32.75 32.37 31.93 31.55 31.17 30.74 30.48 30.42 30.51 30.70 30.79 30.79 30.76 30.76 30.79
43.80 44.20 44.34 44.44 45.41 46.73 48.13 48.87 48.78 48.20 47.53 47.05 46.74 46.52 46.35 45.86 45.86 45.91 45.95 45.91 45.64 45.50 45.46 45.32 44.96 44.26 43.57 42.61 41.93 41.32 40.74 39.92 39.21 38.42 37.66 36.95 36.37 35.83 35.30 34.83 34.38 33.90 33.56 33.59 33.61 33.69 33.93 34.07 34.06 33.90 33.70 33.36 33.03 32.73 32.31 31.93 31.48 30.94 30.36 29.60 29.40 29.37 29.51 29.73 29.88 30.02 30.10 30.25 30.36
43.59 43.96 44.13 44.17 44.57 45.56 47.13 48.59 48.60 48.12 47.54 47.01 46.65 46.52 46.35 45.95 45.91 45.99 45.95 45.73 45.60 45.42 45.29 44.93 44.48 43.91 43.09 42.32 41.70 40.89 39.93 38.80 37.77 37.21 36.77 36.37 35.83 35.40 34.87 34.52 34.17 33.90 33.67 33.71 33.69 33.83 33.76 33.41 33.33 33.32 33.12 32.95 32.70 32.34 31.95 31.51 31.09 30.36 29.58 28.77 28.60 28.55 28.65 28.95 29.22 29.39 29.59 29.80 30.13
43.29 43.55 43.79 43.94 43.95 44.64 45.95 47.73 48.32 48.24 47.84 47.09 46.74 46.48 46.30 45.99 45.86 45.77 45.68 45.46 45.51 45.25 44.81 44.45 43.88 43.26 42.61 41.98 41.24 40.51 39.53 38.30 37.18 36.44 36.01 35.69 35.30 34.91 34.52 34.04 33.95 33.88 33.79 33.43 33.89 33.92 33.66 32.92 33.08 32.94 32.79 32.55 32.19 31.79 31.45 30.98 30.43 29.81 29.11 28.41 28.31 28.26 28.17 28.49 28.87 29.18 29.51 29.75 30.04
42.77 43.24 43.34 43.61 43.68 44.05 44.96 46.86 48.06 48.45 48.18 47.69 46.91 46.56 46.30 45.99 45.82 45.68 45.42 45.20 45.24 44.97 44.27 43.66 42.91 42.21 41.48 41.46 40.74 39.88 38.89 37.85 37.03 36.30 35.69 35.15 34.70 34.34 34.13 33.83 33.88 33.89 33.72 33.56 33.63 33.55 33.39 33.27 32.92 32.61 32.35 32.45 31.69 31.04 30.52 30.16 29.78 29.38 28.94 28.54 28.54 28.41 28.33 28.26 28.62 29.08 29.49 29.87 30.18
42.25 42.68 43.12 43.34 43.34 43.49 44.25 46.09 47.97 48.64 48.49 47.82 47.21 46.86 46.56 46.30 45.90 45.59 45.15 44.88 44.35 43.90 43.36 42.49 41.84 40.83 40.41 40.86 39.95 38.99 38.06 37.44 36.84 36.40 35.72 35.05 34.45 33.99 33.84 33.76 33.94 33.89 33.65 33.50 33.44 33.19 33.16 33.16 32.85 32.43 32.17 32.05 31.43 30.65 29.94 29.27 29.13 28.89 28.75 28.78 28.91 28.83 28.70 28.54 28.67 28.83 29.23 29.70 30.48
41.66 42.23 42.77 43.17 43.13 43.12 43.62 45.11 47.19 48.10 48.20 47.82 47.33 47.20 46.95 46.43 45.77 45.20 44.71 43.99 43.20 42.52 41.88 41.26 40.83 40.39 40.28 40.49 39.10 38.18 37.54 37.10 36.66 36.19 35.65 35.12 34.48 34.09 33.89 33.80 34.04 33.97 33.73 33.51 33.31 33.21 33.09 32.91 32.65 32.16 31.65 30.97 30.88 30.35 29.63 28.85 28.54 28.54 28.64 28.88 29.03 29.19 29.17 29.09 29.13 29.14 29.22 29.63 30.43
41.20 41.82 42.23 42.56 42.71 42.99 43.33 44.10 46.05 47.50 48.20 48.02 47.51 47.21 46.78 46.21 45.51 44.71 43.83 42.77 41.87 41.08 40.64 40.41 40.20 40.04 39.87 39.62 38.45 37.71 37.14 36.61 36.29 35.86 35.37 34.84 34.51 34.32 34.24 34.21 34.04 33.76 33.50 33.51 33.41 33.27 33.04 32.74 32.15 31.59 30.94 30.59 30.35 29.82 29.36 28.90 28.63 28.55 28.67 28.85 29.03 29.21 29.31 29.40 29.44 29.46 29.53 29.77 30.20
40.84 41.25 41.70 41.98 42.27 42.67 43.07 43.48 45.27 46.93 48.02 48.19 47.56 47.05 46.43 45.77 44.97 43.96 42.73 41.46 40.80 40.48 40.32 40.23 39.87 39.54 39.20 38.99 38.05 37.14 36.51 36.19 35.97 35.51 34.94 34.42 34.20 34.30 34.29 34.24 34.13 33.91 33.60 33.44 33.39 33.31 33.01 32.46 31.76 31.04 30.34 30.01 29.86 29.71 29.50 29.14 28.95 28.78 28.55 28.58 28.85 29.00 29.13 29.32 29.41 29.46 29.60 29.69 29.69
40.32 40.68 41.13 41.58 41.90 42.23 42.63 43.13 44.70 46.32 47.49 47.77 47.13 46.52 45.95 45.19 44.30 43.12 42.02 40.95 40.60 40.43 40.32 40.23 39.81 39.44 39.15 39.21 38.01 36.94 36.14 35.83 35.51 35.01 34.53 34.21 33.96 34.09 34.31 34.34 34.08 33.62 33.46 33.55 33.49 33.24 32.81 32.21 31.34 30.55 29.87 29.46 29.37 29.49 29.54 29.31 28.97 28.75 28.48 28.26 28.40 28.55 28.75 28.93 29.15 29.21 29.40 29.45 29.29
40.13 40.36 40.58 40.91 41.24 41.70 42.24 42.71 43.99 45.65 47.04 47.25 46.57 45.99 45.46 44.70 43.90 42.92 41.94 41.09 40.84 40.46 40.22 39.95 39.50 39.19 39.10 38.83 37.42 36.49 35.94 35.58 35.08 34.69 34.42 34.31 34.17 34.16 34.19 34.02 33.72 33.40 33.17 33.68 33.34 33.01 32.55 31.78 30.94 30.11 29.43 29.02 28.92 29.08 29.23 28.95 28.66 28.36 28.21 27.98 28.00 28.10 28.22 28.29 28.54 28.77 29.11 29.24 28.93
40.10 40.15 40.21 40.27 40.57 41.13 41.67 42.20 43.00 44.72 46.27 46.90 46.08 45.46 44.93 44.30 43.40 42.51 41.77 41.08 40.70 40.41 40.04 39.50 39.05 38.83 38.51 38.18 36.57 35.83 35.50 35.22 34.77 34.48 34.30 34.41 34.30 34.17 33.97 33.75 33.66 33.34 33.29 33.55 33.17 32.73 32.04 31.24 30.30 29.47 28.87 28.37 28.41 28.59 28.65 28.29 27.86 27.60 27.38 27.40 27.49 27.71 27.84 27.91 28.07 28.29 28.57 28.75 28.67
40.04 40.16 40.07 39.83 40.00 40.42 41.05 41.78 41.88 42.84 44.27 45.60 45.12 44.67 44.35 43.67 42.68 41.71 41.05 40.57 40.46 40.32 39.96 39.61 39.09 38.83 38.32 37.17 36.22 35.55 35.12 34.80 34.55 34.40 34.38 34.51 34.36 34.07 33.79 33.77 33.72 33.52 33.43 33.36 32.85 32.24 31.55 30.63 29.71 29.03 28.30 27.99 28.15 28.21 27.96 27.32 26.88 26.54 26.30 26.29 26.58 26.77 27.04 27.26 27.50 27.75 27.88 28.11 28.14
40.44 40.25 39.92 39.83 39.79 40.04 40.73 41.84 41.43 41.15 41.37 43.16 43.40 43.62 43.69 43.18 42.03 41.23 40.55 39.99 39.84 39.87 39.79 39.39 38.87 38.44 37.82 37.02 36.26 35.58 35.02 34.62 34.36 34.35 34.29 34.21 34.07 33.84 33.75 33.85 33.77 33.54 33.34 33.14 32.53 31.77 30.96 29.98 29.18 28.47 27.91 27.45 27.40 27.23 26.84 26.28 25.86 25.53 25.36 25.29 25.36 25.46 25.74 26.06 26.37 26.65 26.96 27.27 27.22
41.31 40.55 39.68 39.28 39.37 39.63 40.33 41.39 41.81 41.74 40.97 39.27 39.47 40.55 41.77 42.58 41.57 41.04 40.54 39.84 39.59 39.39 38.94 38.32 37.89 37.41 36.98 36.89 36.21 35.60 35.12 34.68 34.39 34.22 34.21 34.14 33.88 33.79 33.72 33.86 33.67 33.44 33.11 32.80 32.07 31.23 30.39 29.61 28.87 28.14 27.47 26.85 26.56 26.28 25.94 25.49 25.04 24.78 24.69 24.48 24.41 24.41 24.54 24.74 25.12 25.47 25.93 26.18 26.22
41.37 40.55 39.39 38.87 39.02 39.19 39.74 40.64 41.64 42.06 41.15 37.92 38.02 39.05 40.55 41.92 41.22 40.77 40.36 39.68 39.45 38.85 38.05 37.29 36.64 36.18 35.85 36.08 36.37 35.94 35.40 35.03 34.58 34.30 34.06 33.98 33.87 33.68 33.55 33.49 33.40 32.96 32.53 32.34 31.58 30.74 29.96 29.27 28.53 27.66 26.81 26.05 25.74 25.42 25.10 24.72 24.27 24.08 24.03 23.80 23.63 23.70 23.78 23.90 24.13 24.49 24.75 25.06 25.08
40.78 40.41 39.79 39.39 39.29 39.10 39.21 39.91 40.94 41.17 40.79 39.59 39.74 40.24 41.02 41.44 40.82 40.30 39.91 38.99 38.70 38.19 37.33 36.41 35.78 35.48 35.39 35.86 36.53 36.21 35.56 35.04 34.52 34.18 34.01 33.93 33.83 33.76 33.43 33.11 32.98 32.59 32.08 31.81 31.09 30.37 29.70 29.10 28.22 27.39 26.49 25.56 25.29 24.88 24.46 24.01 23.59 23.36 23.13 22.91 22.79 22.84 23.05 23.47 23.72 23.89 23.97 24.04 24.00
39.76 40.09 40.46 40.54 40.16 39.58 39.09 39.17 40.00 40.51 40.79 40.79 40.50 40.72 40.99 40.79 40.25 40.07 39.80 39.02 38.61 37.85 37.00 36.11 35.60 35.33 35.48 35.62 36.12 35.82 35.26 34.59 34.32 34.10 33.90 33.88 33.96 33.75 33.40 32.82 32.56 32.03 31.60 31.16 30.57 30.02 29.47 28.92 28.05 27.26 26.33 25.44 25.15 24.77 24.16 23.53 22.94 22.55 22.25 21.98 21.69 21.75 22.17 22.79 23.21 23.57 23.84 23.95 23.70
39.25 39.83 40.29 40.54 40.52 40.16 39.39 38.83 39.35 40.36 41.19 41.75 41.00 40.72 40.59 40.27 39.84 39.99 39.88 39.06 38.74 38.08 37.15 36.40 35.90 35.69 35.50 35.31 35.42 35.08 34.41 34.00 34.16 34.12 33.93 33.74 33.92 33.86 33.39 32.73 32.10 31.46 31.04 30.79 30.37 29.88 29.21 28.67 27.81 27.06 26.20 25.40 25.06 24.62 23.85 23.17 22.45 21.87 21.52 21.23 20.92 21.00 21.37 22.07 22.87 23.45 23.90 24.10 23.73
39.18 39.64 39.85 40.22 40.43 40.36 39.96 39.33 39.30 40.34 41.50 42.45 41.66 40.98 40.43 40.00 39.94 40.00 39.80 39.06 38.82 38.29 37.63 36.85 36.37 35.96 35.42 34.95 34.68 33.95 33.42 33.19 33.61 33.88 33.90 33.79 34.03 33.82 33.21 32.28 31.52 30.84 30.42 30.29 30.19 29.65 29.02 28.37 27.61 26.93 26.17 25.21 24.85 24.39 23.67 23.01 22.14 21.57 21.20 21.10 20.98 20.95 21.08 21.52 22.28 22.91 23.39 23.80 23.76
MSLP
1009.49 1009.41 1009.37 1009.37 1009.29 1009.33 1009.41 1009.53 1009.57 1009.57 1009.57 1009.69 1009.81 1009.85 1009.89 1009.89 1009.93 1010.01 1010.09 1010.13 1010.17 1010.25 1010.33 1010.33 1010.41 1010.53 1010.65 1010.69 1010.73 1010.85 1010.97 1010.97 1010.97 1011.09 1011.29 1011.61 1011.89 1012.21 1012.49 1012.81 1013.41 1014.17 1014.69 1014.61 1014.25 1013.97 1013.69 1013.61 1013.65 1013.85 1014.17 1014.45 1014.69 1014.97 1015.25 1015.49 1015.69 1015.97 1016.25 1016.65 1017.05 1017.25 1017.37 1017.53 1017.77 1017.97 1018.17 1018.37 1018.57
1009.45 1009.37 1009.37 1009.37 1009.29 1009.21 1009.17 1009.17 1009.25 1009.21 1009.17 1009.17 1009.37 1009.53 1009.69 1009.93 1010.13 1010.37 1010.57 1010.69 1010.89 1011.01 1011.09 1011.17 1011.25 1011.25 1011.25 1011.37 1011.41 1011.53 1011.57 1011.53 1011.33 1011.25 1011.37 1011.73 1012.13 1012.53 1012.85 1012.97 1013.33 1014.05 1014.77 1015.05 1014.85 1014.53 1014.21 1013.97 1013.93 1014.09 1014.37 1014.57 1014.81 1015.17 1015.53 1015.77 1015.89 1016.09 1016.37 1016.73 1017.09 1017.29 1017.49 1017.69 1017.97 1018.17 1018.37 1018.53 1018.69
1009.49 1009.33 1009.25 1009.21 1009.21 1009.13 1009.09 1009.01 1008.97 1008.89 1008.81 1008.77 1008.85 1009.09 1009.25 1009.45 1009.69 1009.97 1010.37 1010.69 1011.05 1011.33 1011.57 1011.81 1011.93 1011.97 1011.93 1011.97 1012.09 1012.25 1012.29 1012.21 1011.93 1011.69 1011.65 1011.81 1012.25 1012.81 1013.21 1013.33 1013.37 1013.93 1014.69 1015.25 1015.25 1015.09 1014.77 1014.49 1014.33 1014.37 1014.57 1014.81 1015.09 1015.53 1015.89 1016.13 1016.25 1016.37 1016.53 1016.81 1017.09 1017.33 1017.61 1017.89 1018.17 1018.37 1018.53 1018.69 1018.81
1009.61 1009.37 1009.17 1009.01 1008.97 1008.97 1009.01 1008.97 1008.97 1008.85 1008.77 1008.73 1008.69 1008.81 1009.01 1009.21 1009.25 1009.37 1009.61 1009.97 1010.33 1010.81 1011.33 1011.81 1012.21 1012.41 1012.53 1012.53 1012.65 1012.77 1012.85 1012.85 1012.69 1012.45 1012.29 1012.25 1012.53 1013.05 1013.45 1013.61 1013.65 1013.97 1014.53 1015.13 1015.41 1015.37 1015.17 1014.97 1014.81 1014.85 1015.01 1015.21 1015.45 1015.85 1016.25 1016.53 1016.65 1016.65 1016.73 1016.97 1017.17 1017.41 1017.73 1018.09 1018.37 1018.53 1018.69 1018.81 1018.93
1009.73 1009.49 1009.25 1009.01 1008.85 1008.85 1008.97 1009.01 1008.97 1008.89 1008.81 1008.81 1008.73 1008.81 1009.09 1009.33 1009.41 1009.45 1009.45 1009.53 1009.69 1009.97 1010.41 1010.97 1011.57 1012.17 1012.61 1012.81 1012.93 1013.09 1013.17 1013.21 1013.13 1013.05 1012.97 1012.89 1012.97 1013.29 1013.69 1014.01 1014.09 1014.21 1014.53 1015.05 1015.37 1015.53 1015.49 1015.37 1015.45 1015.53 1015.65 1015.77 1015.97 1016.25 1016.57 1016.81 1016.93 1016.97 1017.09 1017.29 1017.45 1017.69 1017.97 1018.33 1018.53 1018.69 1018.81 1018.89 1019.01
1009.81 1009.53 1009.33 1009.09 1008.93 1008.85 1008.89 1008.93 1008.81 1008.77 1008.77 1008.81 1008.81 1008.85 1009.09 1009.45 1009.61 1009.69 1009.69 1009.77 1009.85 1009.97 1010.09 1010.37 1010.81 1011.37 1012.01 1012.49 1012.81 1013.05 1013.17 1013.25 1013.21 1013.17 1013.17 1013.21 1013.37 1013.69 1014.05 1014.37 1014.45 1014.53 1014.69 1015.05 1015.33 1015.49 1015.53 1015.61 1015.69 1015.81 1015.93 1015.97 1016.17 1016.41 1016.69 1016.97 1017.21 1017.45 1017.69 1017.85 1017.97 1018.09 1018.29 1018.53 1018.69 1018.77 1018.85 1018.97 1019.01
1009.81 1009.57 1009.37 1009.21 1009.01 1008.85 1008.81 1008.81 1008.77 1008.73 1008.73 1008.81 1008.81 1008.85 1009.09 1009.45 1009.69 1009.77 1009.81 1009.89 1010.09 1010.29 1010.41 1010.53 1010.65 1010.93 1011.37 1011.93 1012.41 1012.77 1012.97 1013.05 1013.09 1013.09 1013.17 1013.37 1013.65 1013.93 1014.21 1014.45 1014.53 1014.57 1014.69 1014.85 1015.09 1015.25 1015.33 1015.37 1015.53 1015.73 1015.89 1016.05 1016.29 1016.57 1016.85 1017.09 1017.45 1017.73 1017.97 1018.21 1018.33 1018.45 1018.53 1018.65 1018.77 1018.85 1018.89 1018.97 1019.01
1009.77 1009.61 1009.41 1009.21 1009.05 1008.85 1008.73 1008.69 1008.65 1008.69 1008.73 1008.77 1008.77 1008.81 1008.97 1009.29 1009.65 1009.81 1009.81 1009.89 1010.05 1010.25 1010.45 1010.61 1010.73 1010.85 1011.09 1011.53 1012.01 1012.41 1012.69 1012.81 1012.89 1013.01 1013.21 1013.45 1013.65 1013.85 1014.05 1014.21 1014.25 1014.33 1014.41 1014.61 1014.81 1015.05 1015.21 1015.33 1015.49 1015.69 1015.97 1016.25 1016.53 1016.81 1017.09 1017.29 1017.53 1017.81 1018.05 1018.25 1018.45 1018.57 1018.61 1018.69 1018.77 1018.85 1018.93 1018.97 1019.05
1009.53 1009.41 1009.29 1009.13 1008.97 1008.81 1008.69 1008.61 1008.57 1008.57 1008.61 1008.69 1008.77 1008.81 1008.89 1009.09 1009.49 1009.69 1009.81 1009.85 1009.93 1010.05 1010.25 1010.45 1010.65 1010.81 1011.01 1011.33 1011.77 1012.17 1012.45 1012.61 1012.69 1012.93 1013.17 1013.37 1013.57 1013.73 1013.89 1013.97 1014.09 1014.21 1014.41 1014.65 1014.89 1015.09 1015.29 1015.45 1015.61 1015.77 1015.97 1016.25 1016.53 1016.89 1017.13 1017.37 1017.53 1017.81 1018.05 1018.25 1018.41 1018.53 1018.61 1018.69 1018.77 1018.85 1018.93 1018.97 1019.09
1009.09 1009.01 1008.97 1008.97 1008.89 1008.77 1008.65 1008.57 1008.53 1008.53 1008.57 1008.69 1008.81 1008.89 1008.97 1009.05 1009.29 1009.53 1009.69 1009.81 1009.89 1009.97 1010.09 1010.25 1010.41 1010.65 1010.93 1011.21 1011.61 1011.97 1012.25 1012.45 1012.65 1012.85 1013.13 1013.37 1013.53 1013.69 1013.81 1013.97 1014.09 1014.25 1014.49 1014.69 1014.93 1015.13 1015.29 1015.45 1015.65 1015.81 1016.05 1016.25 1016.53 1016.81 1017.09 1017.33 1017.49 1017.69 1017.97 1018.13 1018.29 1018.41 1018.53 1018.69 1018.77 1018.81 1018.89 1018.97 1019.09
1008.85 1008.69 1008.65 1008.69 1008.65 1008.65 1008.57 1008.49 1008.49 1008.53 1008.57 1008.69 1008.81 1008.93 1009.01 1009.09 1009.25 1009.45 1009.65 1009.77 1009.85 1009.97 1010.01 1010.09 1010.25 1010.41 1010.69 1011.05 1011.37 1011.69 1012.01 1012.33 1012.61 1012.93 1013.17 1013.37 1013.53 1013.65 1013.73 1013.85 1014.01 1014.21 1014.41 1014.69 1014.93 1015.13 1015.33 1015.49 1015.69 1015.85 1016.05 1016.29 1016.53 1016.81 1017.05 1017.25 1017.37 1017.61 1017.81 1018.01 1018.17 1018.29 1018.45 1018.65 1018.73 1018.81 1018.85 1018.97 1019.13
1008.69 1008.45 1008.37 1008.37 1008.41 1008.41 1008.41 1008.33 1008.33 1008.41 1008.53 1008.61 1008.73 1008.89 1008.97 1009.09 1009.21 1009.37 1009.57 1009.69 1009.81 1009.93 1010.01 1010.09 1010.17 1010.29 1010.53 1010.81 1011.13 1011.41 1011.77 1012.17 1012.53 1012.85 1013.09 1013.29 1013.45 1013.57 1013.73 1013.85 1014.05 1014.25 1014.49 1014.69 1014.97 1015.13 1015.33 1015.49 1015.69 1015.81 1016.01 1016.25 1016.53 1016.73 1016.97 1017.09 1017.29 1017.53 1017.73 1017.97 1018.09 1018.25 1018.41 1018.53 1018.65 1018.73 1018.85 1019.01 1019.17
1008.53 1008.25 1008.09 1008.09 1008.13 1008.17 1008.17 1008.13 1008.09 1008.21 1008.33 1008.45 1008.57 1008.69 1008.85 1008.97 1009.09 1009.25 1009.45 1009.61 1009.73 1009.85 1009.97 1010.09 1010.13 1010.21 1010.37 1010.61 1010.85 1011.17 1011.53 1011.93 1012.29 1012.61 1012.89 1013.13 1013.37 1013.53 1013.73 1013.93 1014.09 1014.33 1014.53 1014.77 1014.97 1015.13 1015.25 1015.45 1015.57 1015.73 1015.93 1016.17 1016.41 1016.65 1016.81 1016.97 1017.21 1017.41 1017.69 1017.89 1018.09 1018.21 1018.33 1018.49 1018.61 1018.69 1018.85 1019.05 1019.25
1008.37 1008.05 1007.81 1007.81 1007.89 1007.93 1007.93 1007.97 1007.85 1007.93 1008.05 1008.25 1008.41 1008.53 1008.69 1008.81 1008.97 1009.13 1009.29 1009.45 1009.61 1009.77 1009.89 1010.05 1010.13 1010.21 1010.25 1010.41 1010.65 1010.97 1011.33 1011.69 1012.05 1012.37 1012.69 1012.97 1013.21 1013.45 1013.69 1013.85 1014.09 1014.33 1014.53 1014.77 1014.93 1015.05 1015.17 1015.33 1015.49 1015.61 1015.77 1016.01 1016.29 1016.53 1016.73 1016.93 1017.09 1017.33 1017.57 1017.77 1017.97 1018.09 1018.29 1018.49 1018.61 1018.73 1018.89 1019.09 1019.29
1008.25 1007.85 1007.61 1007.53 1007.61 1007.69 1007.69 1007.69 1007.65 1007.61 1007.73 1007.97 1008.17 1008.33 1008.49 1008.65 1008.81 1008.97 1009.17 1009.33 1009.53 1009.65 1009.77 1009.93 1010.05 1010.13 1010.25 1010.37 1010.53 1010.81 1011.17 1011.57 1011.89 1012.17 1012.45 1012.73 1013.01 1013.25 1013.53 1013.81 1014.05 1014.29 1014.53 1014.69 1014.85 1014.97 1015.09 1015.25 1015.41 1015.57 1015.77 1015.97 1016.21 1016.45 1016.69 1016.93 1017.09 1017.29 1017.49 1017.69 1017.85 1018.05 1018.25 1018.45 1018.61 1018.77 1018.93 1019.13 1019.37
1008.17 1007.77 1007.45 1007.33 1007.37 1007.37 1007.41 1007.41 1007.41 1007.37 1007.45 1007.61 1007.85 1008.09 1008.25 1008.41 1008.61 1008.81 1008.97 1009.21 1009.37 1009.53 1009.69 1009.77 1009.85 1010.01 1010.21 1010.37 1010.53 1010.73 1011.09 1011.45 1011.77 1012.01 1012.25 1012.49 1012.77 1013.05 1013.33 1013.69 1013.93 1014.21 1014.45 1014.65 1014.81 1014.97 1015.13 1015.29 1015.45 1015.61 1015.81 1015.97 1016.21 1016.45 1016.69 1016.93 1017.13 1017.33 1017.53 1017.65 1017.81 1018.05 1018.25 1018.45 1018.61 1018.81 1018.97 1019.13 1019.37
1008.09 1007.73 1007.41 1007.25 1007.17 1007.13 1007.13 1007.21 1007.21 1007.17 1007.17 1007.33 1007.57 1007.81 1007.97 1008.13 1008.33 1008.53 1008.73 1008.97 1009.13 1009.33 1009.49 1009.61 1009.69 1009.85 1010.09 1010.29 1010.49 1010.69 1010.97 1011.25 1011.57 1011.81 1012.01 1012.21 1012.49 1012.77 1013.09 1013.41 1013.73 1014.05 1014.37 1014.57 1014.81 1015.01 1015.21 1015.41 1015.57 1015.73 1015.85 1016.05 1016.25 1016.45 1016.69 1016.93 1017.13 1017.33 1017.53 1017.73 1017.93 1018.09 1018.29 1018.45 1018.61 1018.81 1018.97 1019.17 1019.41
1008.05 1007.73 1007.37 1007.13 1007.01 1006.97 1006.93 1006.93 1006.97 1006.97 1006.97 1007.09 1007.29 1007.53 1007.69 1007.85 1008.01 1008.25 1008.45 1008.69 1008.85 1009.05 1009.25 1009.41 1009.53 1009.69 1009.81 1010.05 1010.33 1010.57 1010.81 1011.09 1011.33 1011.57 1011.81 1012.01 1012.25 1012.53 1012.89 1013.25 1013.57 1013.93 1014.25 1014.53 1014.73 1014.97 1015.21 1015.41 1015.65 1015.81 1015.97 1016.17 1016.37 1016.53 1016.73 1016.93 1017.13 1017.37 1017.57 1017.81 1017.97 1018.17 1018.37 1018.53 1018.69 1018.85 1019.05 1019.21 1019.45
1007.97 1007.69 1007.37 1007.05 1006.81 1006.73 1006.69 1006.69 1006.69 1006.73 1006.77 1006.89 1007.09 1007.33 1007.49 1007.61 1007.73 1007.93 1008.17 1008.45 1008.65 1008.81 1009.01 1009.25 1009.37 1009.53 1009.65 1009.81 1010.09 1010.41 1010.65 1010.85 1011.09 1011.37 1011.65 1011.89 1012.13 1012.45 1012.77 1013.09 1013.45 1013.81 1014.13 1014.41 1014.69 1014.97 1015.17 1015.41 1015.65 1015.81 1016.05 1016.25 1016.41 1016.61 1016.81 1016.97 1017.21 1017.45 1017.69 1017.89 1018.09 1018.29 1018.49 1018.65 1018.81 1018.97 1019.09 1019.25 1019.49
1007.93 1007.65 1007.33 1006.97 1006.69 1006.61 1006.57 1006.49 1006.41 1006.45 1006.57 1006.77 1006.97 1007.21 1007.33 1007.41 1007.53 1007.69 1007.89 1008.09 1008.41 1008.61 1008.81 1009.01 1009.25 1009.41 1009.53 1009.69 1009.93 1010.21 1010.53 1010.73 1010.97 1011.25 1011.53 1011.81 1012.13 1012.41 1012.69 1013.05 1013.37 1013.73 1014.09 1014.41 1014.69 1014.93 1015.21 1015.41 1015.61 1015.81 1016.05 1016.25 1016.45 1016.65 1016.85 1017.09 1017.33 1017.57 1017.81 1018.05 1018.25 1018.45 1018.65 1018.77 1018.93 1019.05 1019.21 1019.37 1019.53
1007.93 1007.61 1007.25 1006.93 1006.65 1006.53 1006.49 1006.37 1006.21 1006.21 1006.37 1006.57 1006.81 1007.01 1007.13 1007.25 1007.37 1007.45 1007.57 1007.81 1008.09 1008.37 1008.65 1008.85 1009.09 1009.29 1009.45 1009.57 1009.77 1010.05 1010.33 1010.61 1010.89 1011.13 1011.41 1011.73 1012.09 1012.41 1012.65 1012.97 1013.33 1013.69 1014.05 1014.41 1014.69 1014.93 1015.17 1015.37 1015.61 1015.81 1016.05 1016.25 1016.45 1016.65 1016.89 1017.13 1017.37 1017.69 1017.97 1018.21 1018.41 1018.61 1018.77 1018.89 1019.05 1019.21 1019.33 1019.45 1019.61
1007.81 1007.57 1007.25 1006.85 1006.53 1006.41 1006.37 1006.29 1006.13 1006.09 1006.17 1006.33 1006.53 1006.77 1006.93 1007.01 1007.09 1007.25 1007.37 1007.57 1007.81 1008.09 1008.37 1008.69 1008.93 1009.13 1009.29 1009.41 1009.57 1009.85 1010.17 1010.49 1010.73 1010.97 1011.25 1011.65 1011.97 1012.33 1012.61 1012.97 1013.25 1013.65 1014.01 1014.37 1014.65 1014.93 1015.13 1015.33 1015.53 1015.81 1016.05 1016.25 1016.45 1016.65 1016.85 1017.13 1017.41 1017.73 1018.01 1018.25 1018.53 1018.73 1018.89 1019.05 1019.17 1019.29 1019.41 1019.57 1019.73
1007.77 1007.53 1007.21 1006.81 1006.41 1006.17 1006.09 1006.09 1006.09 1006.05 1006.05 1006.13 1006.33 1006.53 1006.69 1006.81 1006.93 1007.09 1007.25 1007.49 1007.69 1007.85 1008.09 1008.41 1008.69 1008.97 1009.13 1009.29 1009.45 1009.69 1010.05 1010.37 1010.69 1010.93 1011.21 1011.53 1011.89 1012.25 1012.65 1012.97 1013.25 1013.57 1013.93 1014.25 1014.53 1014.81 1015.05 1015.29 1015.53 1015.77 1015.97 1016.21 1016.41 1016.69 1016.93 1017.21 1017.49 1017.77 1018.05 1018.33 1018.57 1018.81 1019.01 1019.17 1019.33 1019.45 1019.61 1019.77 1019.93
1007.69 1007.45 1007.09 1006.69 1006.33 1005.97 1005.81 1005.85 1005.93 1005.97 1005.97 1005.97 1006.17 1006.37 1006.53 1006.69 1006.85 1007.05 1007.25 1007.41 1007.53 1007.69 1007.85 1008.17 1008.53 1008.81 1009.01 1009.25 1009.41 1009.61 1009.89 1010.21 1010.53 1010.81 1011.09 1011.45 1011.81 1012.25 1012.57 1012.89 1013.21 1013.53 1013.81 1014.13 1014.41 1014.65 1014.89 1015.17 1015.45 1015.69 1015.93 1016.17 1016.41 1016.69 1017.01 1017.29 1017.53 1017.81 1018.09 1018.41 1018.69 1018.89 1019.13 1019.33 1019.49 1019.65 1019.81 1019.97 1020.13
1007.57 1007.33 1007.01 1006.69 1006.25 1005.85 1005.57 1005.53 1005.69 1005.77 1005.77 1005.77 1005.93 1006.13 1006.37 1006.53 1006.73 1006.93 1007.13 1007.33 1007.37 1007.53 1007.81 1008.01 1008.33 1008.61 1008.93 1009.17 1009.37 1009.57 1009.81 1010.05 1010.29 1010.61 1010.97 1011.37 1011.77 1012.13 1012.49 1012.81 1013.13 1013.45 1013.81 1014.09 1014.37 1014.53 1014.73 1014.93 1015.17 1015.45 1015.77 1016.09 1016.41 1016.77 1017.09 1017.37 1017.69 1017.97 1018.25 1018.49 1018.73 1018.97 1019.21 1019.45 1019.65 1019.81 1019.97 1020.09 1020.25
1007.41 1007.17 1006.85 1006.53 1006.17 1005.73 1005.37 1005.25 1005.33 1005.45 1005.53 1005.57 1005.69 1005.81 1006.09 1006.33 1006.53 1006.73 1006.93 1007.17 1007.29 1007.49 1007.69 1007.93 1008.17 1008.45 1008.77 1009.01 1009.25 1009.49 1009.69 1009.89 1010.13 1010.41 1010.81 1011.21 1011.61 1012.01 1012.37 1012.69 1013.01 1013.37 1013.77 1014.05 1014.33 1014.53 1014.69 1014.81 1014.97 1015.25 1015.57 1015.97 1016.41 1016.81 1017.17 1017.53 1017.81 1018.09 1018.41 1018.57 1018.81 1019.05 1019.25 1019.53 1019.73 1019.93 1020.09 1020.25 1020.37
1007.25 1006.97 1006.69 1006.41 1006.05 1005.65 1005.25 1004.97 1004.93 1005.09 1005.25 1005.37 1005.41 1005.53 1005.73 1006.01 1006.25 1006.49 1006.69 1006.93 1007.13 1007.37 1007.65 1007.85 1008.09 1008.37 1008.69 1008.89 1009.13 1009.37 1009.57 1009.77 1010.01 1010.33 1010.69 1010.97 1011.37 1011.81 1012.13 1012.49 1012.85 1013.29 1013.69 1013.97 1014.25 1014.49 1014.69 1014.85 1014.97 1015.17 1015.49 1015.85 1016.29 1016.69 1017.09 1017.53 1017.97 1018.25 1018.49 1018.69 1018.89 1019.09 1019.29 1019.53 1019.73 1019.93 1020.13 1020.29 1020.41
1007.05 1006.81 1006.53 1006.25 1005.93 1005.57 1005.17 1004.81 1004.61 1004.69 1004.89 1005.09 1005.09 1005.21 1005.37 1005.69 1005.97 1006.25 1006.45 1006.69 1006.97 1007.25 1007.53 1007.81 1008.01 1008.29 1008.61 1008.89 1009.05 1009.17 1009.37 1009.57 1009.89 1010.25 1010.61 1010.93 1011.25 1011.57 1011.93 1012.29 1012.69 1013.17 1013.57 1013.89 1014.17 1014.41 1014.65 1014.81 1015.05 1015.25 1015.49 1015.81 1016.25 1016.69 1017.09 1017.53 1017.93 1018.25 1018.53 1018.77 1018.97 1019.09 1019.29 1019.53 1019.73 1019.93 1020.09 1020.25 1020.37
1006.81 1006.61 1006.33 1006.05 1005.73 1005.45 1005.09 1004.73 1004.41 1004.29 1004.41 1004.61 1004.81 1004.97 1005.21 1005.41 1005.65 1005.93 1006.21 1006.49 1006.77 1007.09 1007.37 1007.69 1008.01 1008.25 1008.53 1008.77 1008.93 1009.09 1009.25 1009.41 1009.73 1010.09 1010.53 1010.93 1011.25 1011.53 1011.81 1012.13 1012.57 1013.05 1013.49 1013.81 1014.09 1014.37 1014.57 1014.81 1015.01 1015.25 1015.53 1015.81 1016.25 1016.69 1017.09 1017.49 1017.81 1018.17 1018.45 1018.73 1018.97 1019.09 1019.29 1019.49 1019.69 1019.85 1020.05 1020.17 1020.29
1006.61 1006.41 1006.13 1005.85 1005.57 1005.37 1005.05 1004.69 1004.29 1004.01 1004.01 1004.25 1004.53 1004.77 1005.01 1005.21 1005.41 1005.69 1005.97 1006.25 1006.53 1006.81 1007.17 1007.53 1007.89 1008.13 1008.37 1008.65 1008.81 1008.97 1009.09 1009.33 1009.61 1010.01 1010.49 1010.89 1011.21 1011.45 1011.73 1012.09 1012.53 1012.97 1013.41 1013.77 1014.01 1014.25 1014.53 1014.73 1015.01 1015.29 1015.61 1015.89 1016.21 1016.61 1017.01 1017.41 1017.73 1018.09 1018.41 1018.69 1018.89 1019.09 1019.25 1019.45 1019.57 1019.77 1019.93 1020.09 1020.21
1006.37 1006.13 1005.93 1005.65 1005.41 1005.21 1004.97 1004.69 1004.25 1003.89 1003.81 1003.97 1004.25 1004.49 1004.73 1004.97 1005.25 1005.49 1005.73 1006.01 1006.29 1006.57 1006.97 1007.37 1007.69 1007.97 1008.25 1008.53 1008.73 1008.85 1008.97 1009.21 1009.53 1009.97 1010.41 1010.81 1011.17 1011.41 1011.69 1012.05 1012.45 1012.93 1013.37 1013.69 1013.93 1014.21 1014.49 1014.73 1015.01 1015.33 1015.65 1015.89 1016.21 1016.57 1016.97 1017.37 1017.69 1018.01 1018.33 1018.65 1018.89 1019.09 1019.25 1019.41 1019.53 1019.69 1019.81 1019.97 1020.09
1006.09 1005.85 1005.69 1005.45 1005.25 1005.05 1004.85 1004.65 1004.25 1003.89 1003.69 1003.77 1003.97 1004.21 1004.41 1004.69 1004.97 1005.25 1005.53 1005.81 1006.09 1006.45 1006.85 1007.25 1007.61 1007.89 1008.13 1008.41 1008.65 1008.81 1008.93 1009.09 1009.41 1009.85 1010.33 1010.77 1011.09 1011.41 1011.73 1012.09 1012.53 1012.93 1013.29 1013.61 1013.85 1014.13 1014.41 1014.73 1015.05 1015.37 1015.65 1015.93 1016.25 1016.57 1016.97 1017.37 1017.69 1018.01 1018.37 1018.65 1018.85 1019.05 1019.21 1019.37 1019.53 1019.65 1019.73 1019.85 1020.01
1005.81 1005.57 1005.37 1005.25 1005.05 1004.85 1004.69 1004.53 1004.33 1004.01 1003.69 1003.53 1003.69 1003.93 1004.21 1004.49 1004.81 1005.13 1005.45 1005.77 1006.01 1006.29 1006.65 1007.09 1007.49 1007.81 1008.01 1008.25 1008.53 1008.73 1008.85 1008.97 1009.29 1009.77 1010.25 1010.69 1011.09 1011.45 1011.81 1012.21 1012.61 1013.01 1013.33 1013.61 1013.81 1014.09 1014.41 1014.73 1015.09 1015.37 1015.69 1015.97 1016.29 1016.65 1017.01 1017.37 1017.73 1018.09 1018.41 1018.69 1018.93 1019.09 1019.25 1019.37 1019.53 1019.65 1019.77 1019.89 1020.05
1005.45 1005.25 1005.09 1004.93 1004.77 1004.65 1004.53 1004.41 1004.25 1004.09 1003.81 1003.53 1003.53 1003.69 1003.97 1004.37 1004.73 1005.09 1005.37 1005.69 1005.97 1006.17 1006.45 1006.89 1007.29 1007.61 1007.81 1008.01 1008.25 1008.49 1008.65 1008.81 1009.21 1009.69 1010.17 1010.69 1011.09 1011.45 1011.81 1012.25 1012.69 1013.09 1013.37 1013.61 1013.81 1014.09 1014.41 1014.77 1015.09 1015.41 1015.73 1016.05 1016.37 1016.69 1017.09 1017.41 1017.81 1018.17 1018.49 1018.73 1018.97 1019.17 1019.33 1019.49 1019.61 1019.73 1019.85 1020.01 1020.13
1005.17 1004.97 1004.77 1004.57 1004.49 1004.41 1004.33 1004.25 1004.17 1004.09 1003.97 1003.77 1003.57 1003.61 1003.81 1004.13 1004.53 1004.89 1005.21 1005.53 1005.85 1006.13 1006.45 1006.85 1007.25 1007.61 1007.89 1008.09 1008.21 1008.29 1008.41 1008.69 1009.09 1009.61 1010.09 1010.57 1011.05 1011.45 1011.81 1012.21 1012.69 1013.13 1013.45 1013.61 1013.81 1014.09 1014.41 1014.77 1015.09 1015.41 1015.73 1016.09 1016.45 1016.81 1017.17 1017.53 1017.89 1018.21 1018.49 1018.77 1019.05 1019.25 1019.49 1019.65 1019.81 1019.93 1020.09 1020.17 1020.29
1004.89 1004.69 1004.53 1004.37 1004.25 1004.13 1004.09 1004.05 1004.01 1003.97 1003.97 1003.97 1003.89 1003.81 1003.85 1004.05 1004.37 1004.69 1005.09 1005.45 1005.81 1006.17 1006.53 1006.93 1007.33 1007.69 1008.05 1008.29 1008.41 1008.41 1008.41 1008.53 1008.97 1009.45 1009.97 1010.45 1010.93 1011.37 1011.77 1012.25 1012.73 1013.21 1013.49 1013.61 1013.81 1014.09 1014.41 1014.73 1015.05 1015.37 1015.69 1016.09 1016.49 1016.89 1017.25 1017.57 1017.93 1018.25 1018.53 1018.81 1019.09 1019.37 1019.61 1019.81 1019.97 1020.17 1020.29 1020.37 1020.45
1004.69 1004.53 1004.37 1004.21 1004.01 1003.85 1003.81 1003.81 1003.81 1003.81 1003.89 1004.01 1004.09 1004.09 1004.09 1004.13 1004.41 1004.69 1005.01 1005.37 1005.73 1006.09 1006.53 1006.93 1007.33 1007.69 1008.05 1008.37 1008.53 1008.53 1008.49 1008.49 1008.81 1009.33 1009.85 1010.37 1010.81 1011.25 1011.69 1012.25 1012.81 1013.25 1013.53 1013.65 1013.81 1014.09 1014.41 1014.69 1014.97 1015.25 1015.57 1015.97 1016.41 1016.85 1017.25 1017.61 1017.97 1018.33 1018.65 1018.93 1019.25 1019.53 1019.77 1020.01 1020.25 1020.37 1020.45 1020.53 1020.61
1004.53 1004.33 1004.13 1003.97 1003.73 1003.61 1003.53 1003.53 1003.53 1003.57 1003.69 1003.85 1004.01 1004.13 1004.25 1004.33 1004.53 1004.77 1005.01 1005.29 1005.61 1005.97 1006.41 1006.81 1007.13 1007.53 1007.89 1008.29 1008.65 1008.81 1008.77 1008.73 1008.89 1009.29 1009.81 1010.29 1010.69 1011.09 1011.65 1012.21 1012.77 1013.25 1013.53 1013.65 1013.81 1014.09 1014.41 1014.69 1014.93 1015.17 1015.45 1015.81 1016.25 1016.69 1017.13 1017.57 1018.01 1018.41 1018.77 1019.09 1019.41 1019.69 1019.97 1020.17 1020.33 1020.49 1020.57 1020.69 1020.73
1004.37 1004.09 1003.85 1003.65 1003.45 1003.37 1003.29 1003.29 1003.25 1003.33 1003.45 1003.65 1003.81 1004.01 1004.17 1004.41 1004.57 1004.81 1004.97 1005.25 1005.49 1005.81 1006.17 1006.57 1006.97 1007.33 1007.81 1008.25 1008.69 1008.97 1009.09 1009.09 1009.17 1009.41 1009.81 1010.25 1010.69 1011.09 1011.53 1012.13 1012.69 1013.21 1013.53 1013.73 1013.89 1014.09 1014.41 1014.69 1014.93 1015.09 1015.37 1015.69 1016.09 1016.57 1017.09 1017.53 1017.97 1018.41 1018.81 1019.21 1019.53 1019.85 1020.09 1020.25 1020.37 1020.49 1020.61 1020.73 1020.81
1004.21 1003.97 1003.69 1003.41 1003.21 1003.09 1003.01 1002.97 1002.97 1003.05 1003.17 1003.37 1003.57 1003.73 1003.93 1004.13 1004.41 1004.69 1004.93 1005.21 1005.41 1005.69 1006.01 1006.41 1006.81 1007.29 1007.77 1008.25 1008.69 1009.01 1009.25 1009.37 1009.53 1009.69 1009.97 1010.41 1010.81 1011.17 1011.65 1012.17 1012.69 1013.17 1013.53 1013.81 1013.97 1014.21 1014.49 1014.77 1014.97 1015.13 1015.37 1015.61 1016.01 1016.49 1016.97 1017.49 1017.97 1018.41 1018.81 1019.21 1019.53 1019.81 1020.09 1020.25 1020.37 1020.41 1020.53 1020.69 1020.81
1003.97 1003.73 1003.49 1003.21 1002.97 1002.77 1002.65 1002.61 1002.61 1002.69 1002.81 1003.01 1003.21 1003.41 1003.61 1003.81 1004.13 1004.41 1004.73 1005.09 1005.37 1005.69 1006.05 1006.45 1006.89 1007.33 1007.81 1008.25 1008.61 1008.93 1009.17 1009.41 1009.69 1009.93 1010.21 1010.61 1010.97 1011.37 1011.81 1012.29 1012.69 1013.17 1013.53 1013.81 1014.05 1014.25 1014.53 1014.81 1014.97 1015.09 1015.25 1015.57 1015.97 1016.41 1016.89 1017.37 1017.81 1018.29 1018.69 1019.05 1019.37 1019.65 1019.89 1020.09 1020.25 1020.41 1020.45 1020.57 1020.73
Wind_Speed
3 3 4 4 5 5 5 5 4 4 5 5 5 5 6 7 7 7 7 7 6 6 6 5 5 6 7 8 9 10 11 13 14 15 16 16 15 15 15 15 13 10 8 6 6 7 8 10 9 8 7 7 8 8 7 7 9 10 10 10 9 9 10 10 10 10 10 10 8
4 5 5 5 5 5 5 5 5 5 6 6 6 6 6 6 6 6 7 7 7 7 7 7 7 8 9 10 10 10 11 12 15 17 18 18 17 16 16 15 15 13 10 7 7 6 7 9 9 8 7 7 8 8 7 6 8 10 11 11 9 8 8 9 9 10 10 9 8
5 6 6 6 6 5 5 5 5 6 7 7 7 8 8 7 8 7 7 8 8 8 7 7 8 10 11 11 11 11 11 11 14 16 17 18 18 17 16 15 16 15 12 9 8 7 7 8 8 8 8 7 8 8 7 6 7 9 10 11 8 7 7 7 8 8 8 7 8
5 6 6 7 7 7 6 5 6 7 7 6 7 7 7 6 7 8 10 12 12 11 10 9 8 9 10 11 12 12 12 12 14 16 17 18 19 19 18 16 17 15 13 10 9 8 8 9 8 7 8 9 9 8 6 5 6 7 7 7 7 7 7 6 6 6 6 6 7
6 6 5 6 7 7 6 6 7 7 6 5 6 6 6 5 5 6 8 10 11 12 14 15 13 12 11 12 14 14 14 14 13 13 15 16 17 17 16 16 15 14 12 11 10 9 9 8 7 7 7 8 8 7 7 7 7 6 6 5 5 6 6 6 6 5 5 6 6
7 6 6 5 6 6 6 6 7 7 6 6 7 7 7 5 5 6 7 8 10 13 16 17 16 16 16 16 16 15 14 13 12 13 14 15 15 15 15 14 13 12 11 11 11 10 9 8 6 6 6 7 8 8 9 9 8 6 5 4 4 5 5 6 5 5 6 7 7
9 8 7 6 7 7 6 7 7 7 7 7 9 10 10 9 8 9 10 10 11 12 13 13 15 16 17 17 15 14 13 12 13 13 14 14 14 15 15 14 13 12 11 11 11 9 8 8 6 6 6 6 6 8 9 9 8 7 6 5 4 4 5 6 5 6 7 9 10
9 9 8 8 7 7 7 8 8 8 7 7 9 11 13 13 12 12 12 12 12 12 12 11 15 16 17 16 15 14 13 13 13 12 12 12 13 13 13 12 12 11 11 10 9 9 8 7 6 6 6 6 6 7 8 10 10 9 8 7 6 5 5 6 6 7 8 11 11
10 10 10 9 9 8 8 9 9 9 9 9 10 12 14 15 15 14 13 12 13 13 13 14 16 17 17 16 15 14 13 12 13 12 11 11 11 11 11 10 11 11 10 9 9 9 9 7 6 6 7 6 7 8 9 12 12 11 10 9 8 7 7 7 7 8 9 11 11
13 12 12 11 10 9 9 9 9 10 10 11 12 13 14 15 15 15 13 12 13 14 15 16 17 18 18 17 15 14 13 12 12 12 11 10 11 11 11 10 11 11 10 9 9 9 9 7 7 7 7 8 9 11 12 13 14 13 11 8 9 9 9 8 9 10 10 10 11
16 14 13 12 11 10 10 10 9 10 10 11 13 13 14 14 15 14 13 13 14 15 16 17 18 18 18 17 15 14 13 12 12 12 12 12 12 12 11 11 11 11 11 9 9 8 7 7 8 9 10 10 11 12 13 14 14 13 12 9 10 11 11 10 10 10 10 10 11
18 15 14 14 13 12 11 10 10 10 11 12 14 14 14 14 15 15 14 15 15 16 17 17 18 18 17 16 16 15 15 14 14 14 13 13 13 12 12 11 11 11 11 10 9 8 7 8 10 11 13 12 11 11 12 14 14 13 13 12 12 12 12 11 10 9 9 10 11
19 16 14 15 14 13 12 12 10 10 11 13 14 14 14 14 15 16 16 16 16 15 15 16 17 17 17 16 16 16 16 16 16 15 14 13 13 12 12 12 12 11 11 10 9 9 9 10 12 14 14 14 11 11 12 14 14 14 13 13 13 12 12 12 11 10 10 11 11
20 17 15 15 15 14 13 12 11 11 12 14 14 14 14 14 15 15 15 16 16 15 15 15 15 15 15 17 17 17 17 16 16 16 15 14 13 13 13 12 12 12 11 10 10 11 11 12 14 15 15 15 13 13 13 13 13 14 14 14 13 13 12 12 11 11 11 12 11
21 18 15 14 15 14 13 12 10 11 12 14 14 14 14 13 14 14 15 16 16 16 15 15 14 14 15 17 17 18 18 17 17 16 16 15 14 14 14 13 13 13 12 11 11 11 12 14 14 15 15 15 14 14 13 13 13 13 13 13 13 13 12 12 12 12 12 12 11
21 19 15 13 14 14 13 12 10 10 12 13 14 14 14 13 14 15 15 17 16 15 15 16 15 14 14 15 16 17 17 17 17 17 16 16 16 15 15 14 14 13 13 12 12 11 12 13 13 14 14 14 14 14 14 13 13 13 13 13 13 13 13 12 12 12 12 12 12
20 19 16 13 14 14 14 12 10 10 11 13 15 15 14 14 14 15 16 17 15 15 16 18 16 15 14 14 14 15 16 16 16 16 16 16 17 17 16 16 15 15 14 14 13 13 13 12 12 13 14 14 14 14 14 13 13 12 13 13 12 13 12 12 12 12 12 12 12
19 19 17 14 14 15 15 14 12 11 12 14 15 15 14 14 15 15 16 17 17 18 19 20 18 16 15 15 14 13 13 15 16 16 16 16 17 17 17 16 16 15 15 15 14 14 14 14 13 13 12 12 12 12 13 13 12 12 12 12 12 12 12 12 12 11 11 12 11
19 19 18 16 14 15 16 16 14 13 13 13 14 14 15 15 16 16 17 17 18 20 21 21 19 17 16 16 15 13 12 14 15 16 16 16 16 16 16 16 16 15 15 15 15 15 15 14 14 13 13 12 12 12 12 12 12 12 12 12 12 12 11 11 11 11 11 11 11
18 19 19 17 15 15 16 16 15 14 13 13 14 15 15 16 17 18 18 19 19 20 21 22 20 18 16 16 16 14 13 13 15 16 16 16 16 16 16 16 16 16 15 15 14 14 14 14 14 14 13 13 13 12 12 12 12 12 11 11 11 11 11 11 10 10 10 11 10
18 18 18 18 14 14 15 16 15 15 14 14 15 16 16 17 18 19 19 20 20 20 21 21 20 18 17 16 16 15 14 12 14 15 16 15 16 16 16 16 16 15 14 14 14 14 14 14 15 14 14 13 13 13 13 12 12 12 11 10 10 10 10 10 10 10 10 10 10
17 18 18 18 15 13 14 16 15 14 15 15 16 16 17 17 18 19 19 19 20 20 20 20 19 17 17 16 17 16 14 12 14 15 15 15 15 15 15 15 16 15 15 14 14 14 14 15 15 14 14 13 13 13 13 13 13 13 12 11 11 11 10 10 9 9 9 9 9
17 17 18 18 16 14 14 15 15 14 14 15 16 16 17 16 17 18 18 18 18 19 19 18 16 16 16 16 16 16 15 14 15 15 15 15 15 15 15 14 15 16 15 13 13 14 14 14 14 14 14 13 14 14 14 13 13 13 13 12 12 11 10 9 9 9 9 9 8
17 17 17 16 17 15 14 15 15 15 14 15 16 16 16 15 16 16 17 17 18 18 18 15 14 15 16 16 17 17 17 17 16 16 16 16 16 16 16 14 15 14 13 11 12 13 13 12 13 13 13 13 13 13 13 13 13 13 13 13 12 11 10 10 9 9 9 9 8
18 18 17 17 18 17 15 15 16 16 16 16 16 16 16 15 15 15 16 16 17 18 17 15 14 14 15 16 16 17 17 18 18 18 17 17 17 16 15 13 13 12 11 10 14 15 15 13 12 12 12 12 12 12 12 12 13 12 12 12 12 11 11 10 10 10 10 10 9
18 18 18 18 19 18 16 15 17 17 17 17 17 17 16 16 15 15 16 16 16 16 16 15 14 14 14 15 16 17 17 17 18 18 18 18 18 17 15 13 11 10 9 12 16 17 17 16 15 13 13 12 13 12 12 12 12 12 12 12 11 11 11 11 11 10 10 10 10
18 18 18 18 18 18 17 15 16 18 18 18 18 18 18 17 15 16 17 16 16 15 14 13 13 13 13 14 17 18 17 16 17 18 18 18 19 18 16 13 11 10 10 14 17 18 18 18 18 16 15 13 13 13 12 11 12 12 12 11 11 11 12 12 12 11 11 10 11
18 18 18 18 19 19 18 15 16 18 19 18 18 18 18 18 18 17 17 16 15 14 13 12 12 11 11 12 16 18 18 17 17 17 17 18 18 18 16 14 12 12 13 18 20 20 20 20 20 19 17 14 13 13 13 13 12 11 11 10 11 11 12 12 11 11 11 11 11
19 19 19 19 19 19 18 17 15 17 19 19 18 17 18 18 18 18 17 16 15 14 12 11 10 9 10 11 15 17 18 18 17 16 16 17 17 17 16 15 14 15 17 21 22 22 22 22 22 21 19 16 13 11 11 11 11 11 10 9 10 10 11 11 10 11 11 11 10
19 19 19 19 18 18 18 18 16 16 18 18 17 17 17 17 18 18 17 17 16 15 13 11 11 11 12 13 14 16 16 16 16 16 17 18 18 17 16 16 15 16 19 23 23 23 23 23 23 22 21 18 15 12 11 11 11 10 9 9 10 10 11 11 12 12 11 11 11
19 19 19 18 18 18 18 19 17 15 16 17 17 17 17 17 18 18 17 17 16 15 13 13 13 14 15 14 15 15 16 16 16 16 17 18 18 17 17 17 17 18 20 24 24 24 24 24 24 23 22 19 15 12 11 11 11 10 9 9 10 11 11 11 11 12 12 12 12
19 19 18 18 18 17 17 18 18 15 15 18 17 17 17 18 18 17 17 16 16 15 15 14 15 16 17 16 16 16 17 17 17 17 17 17 17 17 17 16 17 18 20 24 24 24 25 25 24 23 22 19 15 13 13 12 11 10 10 11 11 11 11 10 10 12 13 13 12
19 18 18 17 17 17 17 17 17 15 13 16 17 17 17 16 16 16 16 15 15 16 16 16 16 17 17 18 18 18 18 18 18 18 18 18 17 17 17 16 15 17 21 25 25 25 25 25 25 24 22 19 16 14 13 12 11 10 10 10 11 11 11 11 10 11 12 12 11
16 16 16 16 16 15 15 15 14 12 10 12 15 17 17 15 15 15 15 14 14 14 15 15 15 16 17 18 19 20 19 18 18 19 19 18 18 17 17 14 13 16 21 25 25 25 26 26 25 24 22 19 15 14 13 13 11 10 10 11 10 10 10 10 10 10 11 11 10
15 15 15 15 14 14 14 14 12 10 7 9 12 15 16 16 16 16 15 14 13 13 13 13 13 13 14 16 18 19 20 19 19 19 19 19 18 18 17 15 14 18 22 25 25 26 27 27 26 25 22 18 14 13 13 13 12 12 12 12 11 10 10 10 9 9 9 10 10
16 15 14 14 14 14 13 13 12 9 7 6 8 10 13 15 15 16 15 15 14 13 13 12 12 12 12 13 15 17 19 20 20 20 19 19 19 19 18 17 17 20 23 25 26 27 27 27 27 25 21 16 12 12 12 12 11 12 13 12 12 11 10 9 9 8 9 9 10
17 15 14 13 14 14 13 12 11 10 7 6 7 8 10 13 14 14 15 15 15 15 14 13 13 13 13 13 14 15 16 18 20 20 20 20 20 19 19 18 19 21 23 25 27 28 28 28 27 24 20 15 13 12 12 11 10 11 12 12 12 11 10 9 8 8 8 9 9
18 16 15 14 14 14 13 13 12 10 9 8 9 10 11 12 12 13 15 15 16 16 15 15 15 15 15 15 14 14 15 16 18 20 20 20 20 20 20 20 20 21 22 25 27 28 28 28 26 23 19 15 14 13 12 11 11 11 11 11 10 10 9 8 7 8 8 9 10
20 19 19 18 16 14 13 13 13 11 10 11 12 13 13 13 13 14 15 15 16 17 17 16 17 16 16 16 14 13 13 15 17 18 19 19 19 20 20 20 20 20 21 25 27 28 28 27 26 23 20 16 14 13 11 11 12 12 11 10 10 9 9 7 7 7 8 11 12
20 20 20 19 17 15 14 14 14 13 12 12 14 15 16 15 15 15 16 15 16 17 17 17 18 17 16 16 15 14 15 15 16 17 17 18 18 19 20 20 20 20 22 25 27 27 27 26 25 23 20 15 14 12 11 11 12 12 11 10 9 9 8 7 7 7 8 10 12
19 19 19 19 18 17 16 15 15 15 15 15 16 16 16 16 16 17 17 15 16 16 15 15 18 18 17 15 14 15 16 17 17 17 17 18 18 19 19 19 20 20 21 23 26 26 26 26 25 23 19 15 13 12 11 11 12 12 12 11 10 9 8 8 7 7 7 8 9
Wind_Direction
144 142 139 138 134 132 131 131 129 121 108 91 72 57 46 40 38 33 28 25 24 24 26 33 49 64 77 85 94 101 105 108 107 104 101 99 99 99 99 97 93 84 73 69 80 91 98 101 100 99 98 99 101 102 105 114 119 119 118 118 122 124 124 122 123 124 125 123 121
166 156 151 150 145 141 141 145 147 144 137 128 118 108 98 86 75 64 54 46 43 41 40 43 53 64 74 78 83 89 97 103 105 104 101 99 98 98 98 98 97 92 82 68 65 71 82 91 95 97 97 97 96 96 98 105 114 117 118 119 121 121 119 117 120 121 122 121 122
185 170 164 161 158 155 155 157 155 151 144 138 134 131 128 125 121 114 105 95 86 76 67 61 62 68 73 77 79 82 86 92 96 99 100 100 100 99 99 99 98 95 89 78 68 66 70 77 82 86 88 89 89 88 89 92 103 112 116 118 118 116 114 114 118 120 121 122 124
206 190 179 173 169 166 165 165 159 153 146 137 132 129 130 133 135 133 130 125 119 114 109 103 93 86 84 86 89 89 89 90 92 95 98 101 103 102 101 99 98 98 97 92 84 77 73 71 72 75 80 85 85 83 80 76 84 93 101 107 109 111 112 115 120 122 124 125 124
228 214 201 190 178 173 170 169 161 153 143 134 127 122 120 122 129 133 134 133 133 133 131 129 124 118 113 108 107 106 105 104 102 102 103 104 105 105 105 104 105 107 109 109 106 101 95 88 86 88 93 96 96 94 90 82 74 72 75 79 91 102 111 118 124 127 129 128 126
245 232 218 204 188 181 176 171 158 149 141 135 129 125 123 126 133 134 133 131 131 132 132 131 130 129 127 125 124 124 123 122 119 116 113 110 111 113 116 119 123 126 127 128 127 123 118 112 108 106 106 106 106 107 105 100 92 87 83 81 90 103 114 123 128 130 131 130 126
251 243 230 212 200 192 184 172 157 147 142 139 136 134 134 137 141 140 137 132 130 130 131 131 132 132 132 133 133 133 133 131 127 123 122 122 126 130 134 138 139 139 136 133 129 125 119 113 109 105 103 100 104 110 114 116 117 117 117 118 119 122 126 131 132 133 132 130 127
252 248 241 226 213 202 190 175 161 153 150 151 147 144 142 142 144 144 142 138 137 138 137 135 135 135 134 135 135 136 135 133 130 129 130 132 136 139 140 141 138 135 130 126 123 119 115 110 111 113 113 112 115 123 130 135 136 136 136 138 139 140 139 138 138 136 134 132 128
254 245 241 235 225 212 197 181 169 163 160 160 156 152 149 146 147 147 147 145 145 144 142 140 139 138 136 135 135 136 135 133 130 130 130 132 134 136 136 135 133 131 129 128 127 126 125 120 121 124 127 128 132 140 146 148 147 145 144 144 145 144 142 140 139 138 135 132 129
269 250 238 233 227 217 203 188 176 170 165 162 160 157 154 150 151 152 153 152 149 148 146 144 143 140 138 136 136 136 134 131 129 130 133 137 141 143 145 144 143 141 140 139 136 134 132 127 130 134 136 138 143 148 153 156 153 150 148 147 146 144 142 141 140 138 136 132 129
287 264 243 229 222 214 203 191 181 175 170 165 164 162 159 155 155 156 156 154 151 151 150 148 146 143 141 139 139 138 137 135 138 143 149 154 156 156 154 152 149 147 145 145 142 140 139 138 141 143 144 145 148 153 156 158 154 150 147 145 144 143 142 142 141 138 134 131 128
297 276 250 230 220 210 202 193 185 179 174 170 168 166 164 161 159 158 157 156 155 154 153 152 149 147 145 143 143 143 143 146 152 157 161 163 162 159 156 153 151 150 149 149 149 150 150 151 150 150 150 150 152 155 158 157 152 147 145 145 144 144 143 143 141 137 133 130 127
302 285 259 232 220 210 202 196 189 183 178 174 172 171 169 167 163 160 159 159 158 157 156 156 154 151 149 148 148 150 152 157 162 163 164 164 162 160 157 155 155 154 154 156 159 161 161 159 157 155 153 153 154 156 156 155 149 146 145 146 146 145 143 142 139 136 131 129 127
306 293 268 234 220 211 204 199 193 186 181 178 176 174 173 170 166 163 162 161 161 161 160 160 159 157 155 154 154 156 159 163 164 164 164 163 162 161 160 159 159 159 161 163 167 167 166 163 160 157 155 154 155 155 154 152 149 147 147 148 146 144 142 140 138 135 132 130 128
308 299 277 237 220 212 207 202 197 189 183 180 179 177 175 172 170 168 166 165 165 164 163 163 163 163 161 160 159 160 162 164 165 165 164 164 163 163 162 162 163 164 165 167 168 168 166 162 160 158 156 154 154 153 152 151 149 149 148 148 145 143 141 140 138 136 135 133 131
309 303 286 245 222 212 208 205 201 192 186 182 180 179 177 174 173 171 170 168 167 167 167 167 166 166 165 165 164 163 164 165 166 166 166 165 165 164 164 164 165 166 166 166 166 165 163 161 159 157 155 154 152 152 152 151 149 148 147 145 143 142 141 141 140 139 138 137 135
309 306 293 257 228 215 210 207 203 195 188 184 182 180 179 176 175 173 172 171 170 170 171 171 170 169 168 168 167 166 166 166 168 168 168 167 166 166 165 165 166 166 165 165 164 163 162 160 159 156 154 152 151 151 150 149 148 146 144 142 141 141 141 141 141 140 139 138 137
308 306 298 271 239 222 213 208 204 198 191 185 183 182 181 178 176 175 174 173 173 173 173 173 173 172 171 169 168 168 168 168 169 170 170 169 167 166 165 165 164 164 164 164 164 163 162 159 157 154 151 149 148 148 147 146 144 143 141 139 139 139 140 140 140 140 139 139 138
306 306 300 284 252 231 219 210 205 199 192 187 185 183 182 181 178 176 175 176 175 175 175 176 177 176 174 170 168 167 168 169 170 170 170 168 167 165 163 162 162 162 163 164 163 161 159 157 155 152 149 147 145 144 143 141 139 138 137 136 137 137 138 139 139 139 138 138 138
304 304 302 293 266 244 229 217 206 197 191 187 185 185 183 182 180 178 177 177 176 176 176 178 180 179 177 171 168 167 167 169 169 169 168 166 165 163 161 160 159 160 161 162 160 159 156 154 152 151 149 146 144 142 140 137 135 134 133 133 134 135 136 136 136 135 135 135 136
302 303 302 298 277 255 239 226 210 197 189 185 185 185 184 182 181 180 179 177 175 175 177 180 182 181 177 171 167 166 166 167 169 168 167 164 163 161 159 157 157 158 158 158 157 155 154 152 151 149 147 145 143 141 139 137 135 133 131 130 131 131 132 131 130 130 130 131 133
300 301 302 300 285 263 244 234 218 202 190 185 186 186 185 183 183 182 180 176 175 175 176 180 181 180 176 171 167 165 165 166 168 167 165 162 161 159 157 155 155 156 156 156 155 153 152 150 149 147 146 144 143 141 139 137 135 133 130 127 126 126 126 125 125 125 126 127 128
300 300 300 300 291 272 248 235 224 209 195 188 187 187 187 185 184 182 179 177 176 175 175 177 177 175 172 168 165 164 164 165 166 165 163 160 158 157 156 155 156 156 156 156 154 153 151 148 147 146 144 143 141 139 137 135 134 132 130 126 124 123 122 122 122 122 122 123 125
300 299 299 299 295 281 257 236 227 214 200 190 188 188 187 185 183 181 179 178 178 177 176 174 171 168 166 165 164 164 165 165 165 163 161 159 157 156 155 155 156 156 156 155 156 155 152 148 147 145 144 141 139 136 135 134 133 132 129 127 125 123 122 121 122 123 124 126 127
300 298 297 298 297 287 267 239 228 217 205 191 187 186 184 182 180 179 179 179 178 177 175 171 166 163 163 164 165 166 167 167 165 162 160 158 156 156 155 155 155 155 154 153 156 155 153 150 148 146 143 139 136 133 132 132 132 131 130 128 127 126 125 125 126 127 129 130 131
300 299 297 297 298 291 275 244 229 218 208 193 186 183 182 180 179 178 179 180 178 176 172 167 162 160 161 164 166 168 169 168 165 163 160 158 157 156 156 155 154 152 152 155 156 154 152 149 146 143 141 139 136 134 132 132 132 132 131 130 130 131 131 131 132 133 134 134 134
298 298 298 298 300 296 284 255 231 218 209 198 189 184 182 180 180 180 180 180 177 172 167 162 158 158 161 165 168 169 170 168 165 163 161 159 158 157 156 155 153 151 152 156 155 153 150 146 143 140 138 137 136 136 135 134 134 134 134 134 135 135 136 136 137 137 137 137 138
296 297 297 298 300 299 293 271 237 220 210 202 194 189 186 183 182 181 180 177 172 167 162 159 156 157 161 168 171 172 170 167 164 163 162 161 159 158 157 155 153 152 153 155 154 151 148 144 141 139 136 133 133 133 133 134 136 137 137 137 139 139 139 139 139 140 140 141 141
292 294 295 296 298 300 298 286 251 225 211 204 199 194 190 186 184 181 178 172 167 164 161 160 157 158 163 171 173 172 170 166 163 161 161 161 161 160 157 154 152 152 152 154 153 151 147 144 140 138 135 133 132 133 135 137 139 140 140 141 143 143 143 142 142 142 142 142 140
290 290 292 294 295 298 299 296 270 238 215 204 201 196 192 187 183 179 174 169 166 163 162 160 161 164 168 173 173 172 169 165 161 160 161 162 162 161 158 154 152 152 153 154 152 150 147 143 140 137 135 133 132 133 136 139 140 140 141 142 144 144 143 142 142 142 142 141 138
287 287 288 290 291 293 296 298 285 256 226 208 201 195 189 185 182 178 173 169 166 163 161 161 164 166 168 169 171 171 168 163 160 160 162 164 163 161 157 153 151 151 153 154 152 149 146 142 140 137 135 134 133 134 137 139 139 140 141 143 144 144 143 142 143 143 143 142 139
285 285 285 285 286 288 291 295 291 271 238 211 200 191 186 183 180 176 172 168 164 161 161 164 168 169 168 167 170 170 168 162 160 160 162 164 162 159 155 151 150 151 152 154 150 147 144 142 139 137 135 133 131 132 134 135 135 135 136 139 141 143 143 142 143 143 143 142 140
282 281 281 280 281 282 285 289 292 280 250 210 194 187 182 179 176 173 170 167 164 162 162 166 170 171 170 170 171 170 168 163 160 160 160 162 160 156 152 149 150 151 153 153 149 146 143 140 138 136 134 131 129 130 131 130 129 130 132 135 137 139 139 139 140 141 142 141 140
278 277 276 275 275 276 278 282 288 284 260 214 192 183 178 173 171 170 169 168 166 164 164 166 170 172 172 172 172 170 168 162 159 158 158 159 157 154 152 151 150 153 153 152 147 144 141 139 137 134 132 129 127 127 128 127 126 127 129 130 132 133 133 135 136 137 138 138 137
279 277 275 273 272 271 271 274 278 279 263 222 196 184 176 170 169 169 169 168 166 164 163 163 167 170 172 175 173 171 166 160 157 156 157 157 155 154 152 151 151 153 153 150 145 142 140 138 136 133 130 126 125 125 125 124 124 125 127 127 127 128 128 129 131 133 134 134 134
286 282 277 273 271 268 265 264 266 265 253 225 203 188 179 172 170 169 168 166 164 162 161 159 160 164 169 174 176 172 167 160 156 156 155 155 155 153 152 150 151 152 152 149 144 142 140 139 136 133 129 125 124 123 123 122 122 124 125 125 125 126 127 127 129 130 132 133 134
290 285 278 272 271 267 262 257 255 249 236 213 202 194 185 176 172 169 168 165 164 163 161 158 158 160 165 172 176 175 169 160 156 155 155 156 154 152 150 149 151 152 151 148 144 142 141 139 137 134 130 126 125 124 123 121 122 123 124 124 124 125 126 127 128 130 132 133 134
293 289 284 278 273 267 261 254 246 236 221 202 196 193 188 180 175 172 170 166 165 164 162 159 159 160 162 167 172 173 169 161 156 154 155 155 154 151 148 148 150 151 150 147 144 143 142 141 139 136 132 128 128 126 125 124 124 125 125 125 125 126 128 129 131 132 132 134 134
294 292 289 286 280 271 260 251 243 231 215 201 195 191 188 183 180 177 175 171 169 165 163 160 160 159 159 161 164 166 165 161 156 154 154 154 152 149 147 147 149 149 149 147 145 144 143 142 140 137 133 129 129 128 127 126 127 128 128 128 128 129 131 132 134 134 135 135 134
292 290 289 287 283 275 263 250 240 229 216 204 197 192 189 184 183 181 178 175 171 167 163 160 158 156 155 156 158 159 159 158 156 154 152 151 148 146 145 145 147 147 147 147 146 145 144 143 140 137 133 129 129 128 128 129 130 132 133 134 135 135 136 136 136 136 136 136 135
289 287 286 284 282 277 268 254 240 229 218 208 200 195 190 185 184 182 179 175 172 168 163 159 156 154 153 153 153 154 154 155 155 153 150 148 146 144 144 145 145 146 147 148 147 146 144 143 141 138 135 130 130 130 131 132 134 136 139 141 141 140 140 139 138 135 134 134 134